This is the latest recevied weather packets stored in our database for station/object DG9BJA-13. If no packets are shown the sender has not sent any weather packets the latest 10 day(s).
| Time | Temp. | Humidity | Pressure | Rain* | Wind** | Luminosity | Snow |
|---|---|---|---|---|---|---|---|
| 1777739776 | 23.89° C | 50% | 1014.7 hPa | 0 mm | - | 135 W/m² | - |
| 1777739176 | 23.89° C | 49% | 1015.1 hPa | 0 mm | - | 153 W/m² | - |
| 1777738576 | 24.44° C | 49% | 1015.1 hPa | 0 mm | - | 155 W/m² | - |
| 1777737976 | 25° C | 48% | 1015.2 hPa | 0 mm | - | 162 W/m² | - |
| 1777737376 | 25° C | 48% | 1015.3 hPa | 0 mm | - | 253 W/m² | - |
| 1777736776 | 25° C | 47% | 1015.3 hPa | 0 mm | - | 250 W/m² | - |
| 1777736175 | 25.56° C | 46% | 1015.5 hPa | 0 mm | - | 345 W/m² | - |
| 1777735576 | 25.56° C | 46% | 1015.6 hPa | 0 mm | - | 457 W/m² | - |
| 1777734975 | 25° C | 46% | 1015.6 hPa | 0 mm | - | 299 W/m² | - |
| 1777734376 | 25.56° C | 44% | 1015.7 hPa | 0 mm | - | 499 W/m² | - |
| 1777733776 | 25.56° C | 44% | 1015.7 hPa | 0 mm | - | 436 W/m² | - |
| 1777733175 | 25.56° C | 45% | 1015.7 hPa | 0 mm | - | 483 W/m² | - |
| 1777732575 | 25.56° C | 45% | 1015.7 hPa | 0 mm | - | 424 W/m² | - |
| 1777731976 | 25.56° C | 44% | 1015.8 hPa | 0 mm | - | 475 W/m² | - |
| 1777731378 | 25.56° C | 44% | 1015.8 hPa | 0 mm | - | 557 W/m² | - |
| 1777730777 | 25.56° C | 44% | 1016 hPa | 0 mm | - | 610 W/m² | - |
| 1777730177 | 25.56° C | 44% | 1016.1 hPa | 0 mm | - | 510 W/m² | - |
| 1777729577 | 25.56° C | 43% | 1016.1 hPa | 0 mm | - | 536 W/m² | - |
| 1777728977 | 25.56° C | 43% | 1016.2 hPa | 0 mm | - | 626 W/m² | - |
| 1777728377 | 26.11° C | 42% | 1016.3 hPa | 0 mm | - | 570 W/m² | - |
| 1777727777 | 25.56° C | 42% | 1016.2 hPa | 0 mm | - | 705 W/m² | - |
| 1777727178 | 25.56° C | 40% | 1016.3 hPa | 0 mm | - | 441 W/m² | - |
| 1777726577 | 26.11° C | 40% | 1016.6 hPa | 0 mm | - | 751 W/m² | - |
| 1777725977 | 26.11° C | 40% | 1016.5 hPa | 0 mm | - | 724 W/m² | - |
| 1777725377 | 25.56° C | 39% | 1016.7 hPa | 0 mm | - | 599 W/m² | - |
* Rain latest hour (hover to see other rain measurements)
** Current wind speed in m/s (hover to see current wind gust speed)